Location: Rehoboth Beach
(38.7438°N, 75.1341°W)
Time: 17:34:39
(UTC-05:00)

Hubble Space Telescope - Visible Passes

Search period start: 03 March 2015 00:00
Search period end: 13 March 2015 01:00
Orbit: 543 x 548 km, 28.5° (Epoch: 01 March)

Date Brightness Start Highest point End Pass type
(mag) Time Alt. Az. Time Alt. Az. Time Alt. Az.
03 Mar 2.8 05:19:58 13° SW 05:21:41 17° S 05:24:21 10° SSE visible
04 Mar 2.8 05:12:16 14° SSW 05:13:23 15° SSW 05:15:44 10° SSE visible
05 Mar 2.9 05:04:35 13° SSW 05:05:03 13° SSW 05:06:56 10° SSE visible
06 Mar 3.2 04:56:57 11° SSW 04:56:57 11° SSW 04:57:44 10° S visible
